STARLINK-36648

Last updated on Sun Mar 15 2026 00:02:07 GMT+0000 (Coordinated Universal Time)

1 67825U 26033E 26073.58335648 -.01909693 00000+0 -13699-1 0 9999 2 67825 42.9989 241.5319 0001304 272.7823 247.3558 15.76017033 5456
UTC large
Height (km)
Speed (km/s)
/
Latitude / Longitude
Inclination (degrees)
Orbital Period (minutes)
Azimuth
Elevation
Range (km)
Doppler Factor

Next 0 passes for location: London (51.5072 / 0.1276)

Sorry there are no passes over London.